    Observer details:
    033 Karl Schwarzschild Observatory, Tautenburg.  Observer B. Stecklum.  1.34-m
        f/4 Schmidt + CCD.
    046 Klet.  Observers M. Honkova, M. Tichy, J. Ticha, M. Kocer.  Measurers
        M. Tichy, M. Honkova.  0.57-m f/5.2 reflector + CCD.
    104 San Marcello Pistoiese.  Observer P. Bacci.  Measurers P. Bacci, L. Tesi,
        G. Fagioli.  0.60-m f/4 reflector + CCD.
    106 Crni Vrh.  Observer H. Mikuz.  0.6-m f/3.3 Deltagraph + CCD.
    118 Modra.  Observer S. Gajdos.  0.6-m f/5.5 reflector + CCD.
    291 LPL/Spacewatch II.  Observer T. H. Bressi.  1.8-m f/2.7 reflector + CCD.
    595 Farra d'Isonzo.  Observers L. Bittesini, E. Pettarin.  Measurer
        E. Pettarin.  0.40-m f/4.5 reflector + CCD.
    703 Catalina Sky Survey.  Observer R. A. Kowalski.  Measurers A. Boattini,
        E. J. Christensen, A. R. Gibbs, A. D. Grauer, R. E. Hill, J. A. Johnson,
        R. A. Kowalski, S. M. Larson, R. H. McNaught, F. C. Shelly.  0.68-m
        Schmidt + CCD.
    850 Cordell-Lorenz Observatory, Sewanee.  Observer D. T. Durig.  0.30-m f/2.8
        Schmidt-Cassegrain + 765x510 CCD.
    932 John J. McCarthy Obs., New Milford.  Observers M. Polansky, C. KleinStern.
        0.4-m f/5 Schmidt-Cassegrain + CCD.
    A79 Zvezdno Obshtestvo Observatory, Plana.  Observers F. Fratev, M. Minkov.
        Measurer F. Fratev.  0.35-m f/3.5 reflector + CCD.
    B18 Terskol.  Observers M. Andreev, A. Sergeev, N. Parakhin, V. Kozlov.
        Measurer M. Andreev.  0.6-m Cassegrain + CCD.
    B67 Sternwarte Mirasteilas, Falera.  Observer J. De Queiroz.  0.90-m f/6.7
        reflector + CCD.
    C43 Hoyerswerda.  Observer P. Lindner.  0.30-m f/6.3 Schmidt-Cassegrain + CCD.
    C47 Nonndorf.  Observer G. Dangl.  0.25-m f/4.8 reflector + CCD.
    H21 Astronomical Research Observatory, Westfield.  Observer R. Holmes.
        Measurers T. Linder, S. Foglia, L. Buzzi, T. Vorobjov.  0.61-m f/4.5
        astrograph + CCD.
    H36 Sandlot Observatory, Scranton.  Observer G. Hug.  0.56-m reflector + CCD.
    J95 Great Shefford.  Observer P. Birtwhistle.  0.40-m f/6.0 Schmidt-Cassegrain
        + CCD.
    
    Orbital elements:
    2013 RE32                                                Earth MOID = 0.0022 AU
    Epoch 2013 Nov. 4.0 TT = JDT 2456600.5                  MPC
    M  18.85139              (2000.0)            P               Q
    n   0.25286283     Peri.  345.71729     +0.81950572     +0.57103389
    a   2.4767341      Node   339.23668     -0.51151411     +0.69089429
    e   0.5959480      Incl.    7.82686     -0.25838669     +0.44337950
    P   3.90           H   24.6           G   0.15           U   4
    Residuals in seconds of arc
    130906 703  0.3-  0.4-    130906 C43  0.0   0.2-    130907 033  0.5-  0.1+
    130906 703  0.1-  0.2-    130906 C47  0.0   0.4-    130907 932  0.8+  0.1+
    130906 703  0.2+  0.0     130906 C47  0.0   0.3-    130907 932  0.6+  0.2+
    130906 291  0.2+  0.2+    130906 C47  0.3-  0.2+    130907 932  0.6+  0.3-
    130906 291  0.1+  0.2+    130906 C47  0.1-  0.0     130907 H21  0.0   0.1+
    130906 291  0.0   0.1+    130906 106  0.1+  0.2+    130907 H21  0.1+  0.2-
    130906 703  0.0   0.2-    130906 106  0.3-  0.3+    130907 H21  0.1-  0.1-
    130906 703  0.4+  0.1+    130906 106  0.3-  0.1-    130907 H21  0.0   0.1+
    130906 703  0.0   0.2-    130906 106  0.0   0.2+    130907 H36  0.4-  0.1-
    130906 595  0.3+  0.4-    130906 106  0.0   0.4+    130907 H36  0.2+  0.1-
    130906 595  0.4-  0.4-    130906 106  0.0   0.3+    130907 H36  0.1-  0.1-
    130906 595  0.4-  0.0     130906 106  0.1+  0.1+    130907 H36  0.1+  0.1-
    130906 118  0.3+  0.3+    130906 106  0.4-  0.2+    130907 850  0.3+  1.8-
    130906 J95  0.4-  0.1+    130906 106  0.2-  0.3+    130907 850  0.2+  0.3-
    130906 118  0.1-  0.5+    130906 106  0.1+  0.4+    130907 850  0.3+  0.3-
    130906 J95  0.3+  0.7-    130906 106  0.2+  0.2+    130907 850  0.3+  0.1+
    130906 118  0.4+  0.2+    130906 106  0.1+  0.0     130907 850  0.1+  0.1-
    130906 J95  0.3-  0.1-    130906 B67  0.6+  0.3+    130907 J95  0.4-  0.0
    130906 118  0.1+  0.2+    130906 B67  0.5+  0.6+    130907 B18  0.3+  0.2+
    130906 046  1.7+  0.5-    130906 B67  0.5+  0.6+    130907 J95  0.3+  0.2-
    130906 046  0.2-  0.6+    130906 B67  0.6+  0.3+    130907 B18  0.2-  0.1+
    130906 046  0.2-  0.5-    130906 033  0.2+  0.5+    130907 J95  0.1-  0.3+
    130906 118  0.1-  0.5+    130906 033  0.4+  0.1-    130907 B18  0.2-  0.1-
    130906 046  0.6-  1.0+    130906 033  0.0   0.5-    130907 B18  0.3-  0.1+
    130906 046  1.5+  0.4+    130907 104  0.1+  0.1-    130907 B18  0.4-  0.0
    130906 046  1.2-  0.6-    130907 104  0.1+  0.1-    130907 A79  0.4+  0.3+
    130906 046  1.7-  1.4-    130907 104  0.2+  0.2-    130907 A79  0.6+  0.2-
    130906 046  0.9-  0.9+    130907 033  0.5+  0.2+    130907 A79  0.4-  0.1-
    130906 C43  0.6-  0.6+    130907 033  0.2-  0.2+
    
    Ephemeris:
    2013 RE32                a,e,i = 2.48, 0.60, 8                   q = 1.0007
    Date    TT    R. A. (2000) Decl.     Delta      r     Elong.  Phase     V
    2013 08 09    13 45 28.6 -43 58 40   0.1347  1.0128    85.7    86.6    23.3
    ...
    2013 08 24    14 09 29.9 -44 45 28   0.05356 1.0008    77.5    99.5    21.8
    ...
    2013 09 01    16 42 38.7 -40 22 16   0.01002 1.0103    95.8    83.7    17.6
    ...
    2013 09 07    00 34 04.5 +40 41 16   0.02622 1.0244   128.6    50.2    18.6
    2013 09 08    00 44 51.5 +41 23 49   0.03176 1.0273   127.7    50.9    19.1
    2013 09 09    00 52 30.5 +41 50 18   0.03734 1.0303   127.2    51.1    19.4
    ...
    2013 09 15    01 12 35.4 +42 35 31   0.07108 1.0517   128.9    48.1    20.8
    ...
    2013 09 23    01 19 00.8 +42 10 12   0.1165  1.0879   134.2    41.4    21.7
    ...
    2013 10 08    01 17 44.8 +39 46 21   0.2059  1.1749   145.6    28.7    22.8
    
    A. U. Tomatic                (C) Copyright 2013 MPC           M.P.E.C. 2013-R68
    

    Read MPEC 2013-R67 Read MPEC 2013-R69


    MPEC number:

    Enter an MPEC number in one of the following forms:

    • 1997-B01 (the full form)
    • J97B01 (the packed version of the full form)
    • B01 (the abbreviated form)